Regional Weather Roundup
Issued by NWS

Home | Current Version | Previous Version | Text Only | Print | Product List | Glossary On
Versions: 1 2 3 4 5 6 7 8 9 10 11 12 13 14 15 16 17 18 19 20 21 22 23 24 25 26 27 28 29 30 31 32 33 34 35 36 37 38 39 40 41 42 43 44 45 46 47 48 49 50
315
ASUS44 KLIX 310410
RWRLA
LOUISIANA WEATHER ROUNDUP
NATIONAL WEATHER SERVICE NEW ORLEANS LA
1100 PM CDT THU OCT 30 2014

NOTE: "FAIR" INDICATES FEW OR NO CLOUDS BELOW 12,000 FEET WITH NO
      SIGNIFICANT WEATHER AND/OR OBSTRUCTIONS TO VISIBILITY.
      SKY/WX - SKY CONDITION AND SIGNIFICANT WEATHER.
      TMP - AIR TEMPERATURE.    DP   - DEWPOINT TEMPERATURE.
      RH  - RELATIVE HUMIDITY.  PRES - PRESSURE.
      HX  - HEAT INDEX.         WCI  - WIND CHILL INDEX.

*  THESE STATIONS ARE NOT NWS OR FAA STATIONS AND ARE NOT UNDER
   NWS QUALITY CONTROL.

LAZ040-048-061>063-065-066-069-310500-
SOUTHEAST LOUISIANA

CITY           SKY/WX    TMP DP  RH WIND       PRES   REMARKS
N.O. AUDUBON     N/A     59  53  81 MISG        N/A
N.O. INTL ARPT CLEAR     58  51  78 W3        30.05S
N.O. LAKEFRONT CLEAR     69  46  43 N10       30.05S
N.O. DOWNTOWN* FAIR      68  43  40 N5        30.06S
SLIDELL        CLEAR     50  46  86 CALM      30.05S
BATON ROUGE    CLEAR     52  48  86 CALM      30.07R
BOOTHVILLE     CLEAR     66  50  56 NW5       30.05R
BELLE CHASSE   CLEAR     52  47  83 CALM      30.04F
BOGALUSA*        N/A     48  44  86 CALM      30.07S
NEW ROADS*     FAIR      51  48  90 CALM      30.08S
GONZALES*      FAIR      51  51 100 CALM      30.07R
HAMMOND*       CLEAR     50  46  87 CALM      30.08R
HOUMA*         CLEAR     52  50  93 CALM      30.06S
PORT FOURCHON* CLEAR     64  52  63 N5        30.09S

$$

LAZ041-044-053-054-310500-
SOUTHWEST LOUISIANA

CITY           SKY/WX    TMP DP  RH WIND       PRES   REMARKS
LAKE CHARLES   CLEAR     54  50  86 CALM      30.09R
LAFAYETTE      CLEAR     54  51  90 CALM      30.08S
PATTERSON      CLEAR     54  52  94 CALM      30.09S
SALT POINT       N/A     62  51  67 CALM      30.06S
NEW IBERIA     CLEAR     54  51  90 NW3       30.09R
CHENAULT AIRPK CLEAR     55  50  86 CALM      30.10S

$$

LAZ027-028-310500-
CENTRAL LOUISIANA

CITY           SKY/WX    TMP DP  RH WIND       PRES   REMARKS
FORT POLK      CLEAR     51  49  92 N2        30.09S
ALEXANDRIA INT CLEAR     50  48  93 CALM      30.08R
ALEXANDRIA     CLEAR     48  47  96 CALM      30.08F

$$

LAZ001-002-310500-
NORTHWEST LOUISIANA

CITY           SKY/WX    TMP DP  RH WIND       PRES   REMARKS
SHREVEPORT     CLEAR     54  48  80 CALM      30.09R
BARKSDALE AFB  CLEAR     53  49  86 CALM      30.09S
DTN SHREVEPORT CLEAR     55  50  83 CALM      30.10R

$$

LAZ014-016-310500-
NORTHEAST LOUISIANA

CITY           SKY/WX    TMP DP  RH WIND       PRES   REMARKS
MONROE         PTCLDY    56  51  84 CALM      30.09S
TALLULAH       CLEAR     47  46  97 CALM      30.08R

$$




USA.gov is the U.S. government's official web portal to all federal, state and local government web resources and services.